Weather Roundup
Issued by NWS

Home | Current Version | Previous Version | Graphics & Text | Print | Product List | Glossary Off
Versions: 1 2 3 4 5 6 7 8 9 10 11 12 13 14 15 16 17 18 19 20 21 22 23 24 25 26 27 28 29 30 31 32 33 34 35 36 37 38 39 40 41 42 43 44 45 46 47 48 49 50

000
NZUS93 KARX 031910
HRRWXR

CURRENT HOURLY OBSERVATIONS ACROSS
MUCH OF THE UPPER MISSISSIPPI VALLEY
NATIONAL WEATHER SERVICE LA CROSSE WI
200 PM CDT FRI JUL 03 2015


...SOUTHEAST MINNESOTA...


CITY           SKY/WX    TMP DP  RH WIND       PRES   REMARKS
ROCHESTER      SUNNY     75  58  55 NW3       29.99F
ROCHESTER/MAYO FAIR      74  53  47 W7        29.98F
WINONA         PTSUNNY   75  55  50 W5        29.96F
AUSTIN         SUNNY     75  54  46 NW7       29.99F
ALBERT LEA     SUNNY     75  54  46 W5        29.99F
DODGE CENTER   SUNNY     73  57  56 W6        29.99F
PRESTON        MOSUNNY   72  55  53 CALM      29.99F
OWATONNA       SUNNY     75  52  43 W7        29.98F
FARIBAULT      SUNNY     75  55  50 W6        29.98F
$$

...ELSEWHERE IN MINNESOTA...


CITY           SKY/WX    TMP DP  RH WIND       PRES   REMARKS
MINNEAPOLIS    CLOUDY    77  55  46 SW8       29.95F
INTNL FALLS    MOSUNNY   77  57  50 N12G21    29.89R
DULUTH         MOSUNNY   79  63  57 W8        29.88F HAZE
RED WING       SUNNY     79  54  41 W7        29.94F
REDWOOD FALLS  SUNNY     78  54  43 W6        29.96F
MANKATO        SUNNY     75  52  43 W3        29.97F
WORTHINGTON    SUNNY     73  55  53 NW3       30.00F
FAIRMONT       SUNNY     75  41  29 CALM      29.98F
$$

...SOUTHWEST WISCONSIN...


CITY           SKY/WX    TMP DP  RH WIND       PRES   REMARKS
LA CROSSE      MOSUNNY   76  57  51 CALM      29.96S
PRAIRIE DU CHI SUNNY     74  48  40 CALM      29.97F
BOSCOBEL       SUNNY     76  55  48 VRB5      29.97F
LONE ROCK      SUNNY     74  52  46 VRB5      29.98S
PLATTEVILLE    SUNNY     73  50  44 S5        29.98F
FORT MC COY    MOSUNNY   76  54  44 SW5       29.97S
CAMP DOUGLAS   MOSUNNY   75  58  55 W8        29.96F
VIROQUA        FAIR      73  53  49 CALM      29.98F
WIS DELLS      SUNNY     74  53  47 SW7       29.97S
$$

...ELSEWHERE IN WISCONSIN...


CITY           SKY/WX    TMP DP  RH WIND       PRES   REMARKS
MILWAUKEE      PTSUNNY   72  49  44 E10       29.97F
MADISON        MOSUNNY   74  53  48 SW5       29.97S
GREEN BAY      SUNNY     75  55  49 SW8       29.94F
EAU CLAIRE     SUNNY     77  56  48 W8        29.93F
BLACK RVR FLS  FAIR      77  53  43 W6        29.95F
MEDFORD        MOSUNNY   72  54  52 SW7       29.95F
WAUSAU         PTSUNNY   75  54  47 SW12      29.93F
WIS RAPIDS     MOSUNNY   75  53  46 SW9       29.97F
MARSHFIELD     MOSUNNY   75  56  51 W8        29.96F
RICE LAKE      CLOUDY    75  55  50 SW8       29.94F
$$

...NORTHEAST IOWA...


CITY           SKY/WX    TMP DP  RH WIND       PRES   REMARKS
DECORAH          N/A    N/A N/A N/A MISG        N/A
MASON CITY     SUNNY     76  53  44 W3        30.01S
CHARLES CITY   SUNNY     73  57  56 CALM      30.00S
OELWEIN        SUNNY     73  54  49 SE3       30.00S
$$

...ELSEWHERE IN IOWA...


CITY           SKY/WX    TMP DP  RH WIND       PRES   REMARKS
DES MOINES     MOSUNNY   78  53  41 CALM      29.99F
IOWA CITY      MOSUNNY   76  59  55 VRB5      29.99F
FORT DODGE     SUNNY     73  54  49 CALM      30.00F
$$

...NORTHERN ILLINOIS...


CITY           SKY/WX    TMP DP  RH WIND       PRES   REMARKS
CHICAGO-OHARE  PTSUNNY   74  53  48 VRB3      29.95F
CHICAGO-MIDWAY CLOUDY    76  54  46 E12       29.96F
MOLINE         SUNNY     76  56  49 E5        29.96F
ROCKFORD       PTSUNNY   78  57  48 CALM      29.98F
PEORIA         MOSUNNY   80  61  52 N6        29.94F
$$

NOTE: "FAIR" INDICATES FEW OR NO CLOUDS BELOW 12,000 FEET WITH NO
SIGNIFICANT WEATHER AND/OR OBSTRUCTIONS TO VISIBILITY. WIND
SPEEDS ARE IN MILES-PER-HOUR.



USA.gov is the U.S. government's official web portal to all federal, state and local government web resources and services.